Location: Bonnesvalyn
(49.1218°N, 3.3177°E)
Time: 12:17:50
(UTC+00:00)

Cosmos 2322 Rocket - Pass Details

Date: 09 February 2023
Orbit: 832 x 851 km, 71.0° (Epoch: 21 March)

Event Time Altitude Azimuth Distance (km) Brightness Sun altitude
Rises 18:28:55 0° 242° (WSW) 3,370 6.6 -15.5°
Reaches altitude 10° 18:31:39 10° 253° (WSW) 2,441 5.9 -16.0°
Maximum altitude 18:36:31 30° 313° (NW) 1,465 3.9 -16.8°
Drops below altitude 10° 18:41:26 10° 14° (NNE) 2,459 4.5 -17.6°
Enters shadow 18:43:54 - 24° (NNE) 3,290 5.0 -18.0°
